Wetbulb
64.93 68.66 71.33 71.77 71.78 71.87 71.70 71.57 71.60 71.70 71.61 72.04 72.22 71.91 71.79 70.99 70.29 69.99 69.85 69.97 70.82 71.80 71.90 71.50 71.31 71.27 70.81 70.62 70.61 70.76 71.54 71.14 71.77 71.76 71.73 72.04 72.53 72.17 71.92 71.81 72.30 70.95 72.52
67.02 68.45 71.02 71.36 71.46 71.36 71.58 71.43 71.24 71.63 71.43 71.28 71.37 71.83 71.22 70.75 70.69 70.34 69.63 69.71 70.20 70.92 71.65 71.30 71.02 70.48 70.45 70.03 69.80 70.04 70.45 71.39 71.21 71.30 70.86 69.28 71.44 71.68 70.93 71.57 71.87 70.01 71.95
65.13 65.84 68.56 70.64 70.91 70.93 70.64 70.97 71.20 71.16 71.07 70.95 70.76 70.52 71.05 70.94 70.75 70.63 70.32 69.51 69.48 69.54 69.87 70.60 70.53 70.61 70.21 70.09 69.87 70.26 70.35 70.80 70.84 70.64 70.55 68.66 68.91 71.17 70.76 71.67 71.20 71.11 71.61
61.91 63.90 66.62 69.28 69.52 70.04 70.42 70.71 70.77 70.85 70.73 70.80 70.77 70.34 70.13 70.30 70.68 71.00 70.89 70.55 69.89 69.45 69.49 69.62 69.95 70.38 70.65 70.45 70.04 70.14 70.71 70.58 70.56 69.64 68.41 69.06 68.48 70.97 71.07 70.86 70.36 71.37 71.47
59.02 60.50 63.14 66.40 67.23 68.53 69.07 69.12 69.82 70.16 70.14 70.14 70.12 70.06 70.06 70.03 70.06 70.27 70.43 70.52 70.31 70.15 70.04 69.71 69.98 70.35 70.69 71.04 70.43 70.68 70.95 70.64 69.94 68.64 66.61 66.55 66.93 69.87 71.08 70.04 70.42 71.21 71.13
55.66 57.52 61.32 63.56 63.82 64.62 66.17 67.27 68.10 68.87 69.28 69.29 68.77 68.92 69.41 69.92 69.98 69.61 69.38 69.31 69.89 69.84 70.30 70.34 70.26 70.89 70.89 70.89 70.04 70.44 71.08 71.00 69.67 65.95 65.71 67.15 67.24 69.68 70.66 70.37 70.22 69.98 70.74
53.93 55.29 56.85 62.68 63.23 63.01 62.94 63.37 64.33 65.39 66.54 66.95 66.94 66.93 67.23 67.90 68.96 69.46 69.18 69.06 68.86 69.19 69.37 69.77 70.27 70.25 71.05 71.07 70.24 70.29 70.85 70.21 68.08 65.03 66.08 65.35 66.50 70.01 70.21 70.67 70.37 70.30 70.31
54.09 54.84 55.21 58.89 61.28 62.46 62.31 62.66 62.64 63.05 63.42 63.57 63.89 65.34 66.52 67.42 67.38 67.92 68.29 68.84 68.89 68.86 68.92 69.19 69.75 69.78 70.19 70.76 70.45 70.64 70.35 68.72 67.03 65.36 65.96 66.37 67.46 69.64 70.07 70.51 70.05 69.70 69.52
53.63 53.75 53.38 53.82 56.23 59.20 61.34 62.50 62.22 62.78 62.55 62.62 62.92 63.44 63.02 63.94 64.58 65.40 65.37 66.04 67.41 68.36 68.62 68.91 69.46 69.59 69.65 70.38 70.64 70.32 69.38 68.31 65.08 65.11 64.53 65.55 68.89 68.99 69.02 68.92 69.15 69.48 69.27
52.27 52.11 52.35 52.44 52.97 52.64 53.11 60.08 61.08 61.01 60.80 60.87 60.23 60.96 60.84 60.89 61.20 61.94 62.30 63.62 64.75 66.46 67.43 68.02 68.69 69.37 69.74 69.38 69.77 69.29 67.78 67.07 64.78 63.14 61.28 65.05 69.84 69.10 69.28 69.24 69.16 69.19 68.82
51.95 50.90 51.38 51.39 51.75 51.99 53.21 55.22 56.17 58.13 58.61 58.09 56.58 57.17 57.37 56.89 57.33 58.08 59.96 61.37 62.97 63.34 64.89 66.19 67.76 68.41 68.30 67.34 67.97 67.37 66.17 65.10 63.59 61.36 60.55 67.60 70.27 69.05 69.16 69.18 68.92 68.70 68.40
48.68 49.84 49.94 50.14 50.34 50.98 53.82 51.29 51.27 52.90 52.08 52.56 52.43 51.97 52.77 53.67 56.18 57.70 57.99 60.05 60.95 62.32 63.35 64.35 65.40 65.77 66.37 65.67 65.40 65.68 64.76 64.00 63.40 62.91 62.67 67.89 69.95 68.88 68.05 69.89 68.46 68.16 67.87
48.60 49.08 49.64 49.41 49.67 49.30 49.33 49.62 49.75 50.25 49.62 50.32 50.70 50.24 50.25 51.21 51.57 51.88 53.35 55.28 56.40 59.43 59.73 61.27 62.35 62.51 63.72 64.71 64.56 64.21 64.30 62.95 62.89 63.29 63.99 66.73 68.97 68.22 67.72 68.56 68.13 67.89 68.03
47.71 47.94 48.27 47.82 48.26 48.18 48.24 48.44 48.36 48.45 47.89 47.73 48.27 48.61 47.47 48.55 48.38 48.91 49.96 51.90 53.61 56.15 55.88 57.83 59.51 60.55 61.30 62.81 63.87 63.23 63.68 63.17 62.96 63.24 63.07 63.97 64.83 65.81 66.91 67.48 67.89 67.53 67.98
46.58 46.73 46.25 46.09 45.52 46.94 46.28 46.61 47.03 46.76 45.87 45.74 45.90 46.31 46.01 46.56 45.90 47.45 48.41 50.24 51.63 52.55 52.93 54.58 57.49 58.47 60.30 60.59 61.47 61.79 63.80 63.54 63.45 63.84 63.35 62.46 63.67 64.28 65.29 66.51 67.30 67.48 67.86
46.82 45.68 45.61 44.77 44.18 44.11 44.70 44.33 44.57 44.57 44.95 43.78 43.53 44.03 44.70 44.49 44.49 45.65 46.88 48.89 50.00 50.44 51.44 52.72 55.82 57.35 58.32 59.65 59.71 60.16 60.86 63.39 63.60 63.49 63.41 63.05 63.21 63.27 63.88 65.02 66.12 66.49 67.44
45.75 44.04 43.47 44.31 43.61 42.11 42.17 42.81 43.49 43.65 44.10 42.61 42.49 42.89 43.22 43.69 42.77 43.59 45.09 46.54 47.70 48.90 50.28 51.45 53.55 54.98 56.02 57.57 58.73 59.26 59.91 60.91 62.36 62.57 62.65 62.76 62.77 62.21 62.90 63.37 65.37 65.94 66.91
44.06 42.69 42.86 43.87 42.47 41.98 40.85 41.24 42.51 42.48 42.14 41.93 42.15 41.69 42.40 43.34 42.84 42.26 43.08 44.72 46.49 47.70 48.86 49.33 49.56 49.76 51.82 53.85 56.28 57.53 58.30 59.44 59.77 60.09 61.23 61.54 62.00 62.17 62.89 62.19 64.11 63.69 65.28
42.02 41.87 41.74 42.39 42.33 42.17 41.89 41.95 41.76 41.75 41.41 41.65 41.10 41.11 41.47 43.81 43.63 42.09 42.93 43.70 45.38 46.33 47.19 47.32 47.16 47.62 48.38 50.86 53.03 55.71 56.48 57.54 58.77 59.47 58.09 58.37 59.34 60.62 61.40 63.06 61.57 60.93 63.01
41.48 42.36 42.66 43.13 42.42 41.76 41.31 40.78 40.91 40.52 40.19 40.64 40.43 41.12 42.05 41.80 42.77 41.54 42.54 43.71 44.67 44.92 45.15 45.76 45.98 47.26 47.92 49.37 52.10 52.76 54.64 56.20 57.34 58.29 58.12 58.72 58.50 59.36 61.20 61.13 61.57 61.19 62.22
41.84 41.48 41.14 41.53 41.62 40.53 38.81 37.89 37.83 37.49 38.96 39.77 40.62 41.35 40.52 41.34 41.98 40.23 40.66 41.96 43.41 43.16 43.34 45.15 45.80 45.23 45.70 47.77 49.05 50.81 52.22 54.00 55.65 57.18 58.30 58.77 59.01 59.83 59.93 60.20 60.87 60.92 61.27
40.84 40.70 41.77 42.54 40.99 40.01 39.19 38.02 37.70 37.28 37.98 38.21 39.72 39.39 40.31 39.93 40.28 40.44 39.25 39.52 41.53 42.02 42.56 43.45 43.75 44.21 44.75 47.24 46.63 46.78 46.41 49.26 54.15 55.24 56.55 57.26 57.38 58.07 58.69 59.25 60.33 61.19 61.02
40.04 41.12 42.13 41.14 40.15 39.25 38.05 38.23 37.73 37.20 36.67 36.16 37.26 37.82 38.49 39.19 39.62 39.35 38.75 38.75 38.65 40.46 41.40 41.85 42.62 43.07 42.87 43.77 44.92 46.65 45.48 45.37 49.20 53.69 54.68 54.44 55.78 55.99 57.01 58.63 59.43 60.33 60.55
40.90 39.84 39.19 38.54 38.29 39.00 37.30 35.72 33.89 33.02 32.85 34.37 35.54 36.52 36.60 37.34 37.83 38.68 38.58 37.45 37.63 39.20 39.41 40.18 41.12 41.66 42.56 41.90 43.50 47.42 48.19 47.71 47.19 46.92 50.77 50.99 54.15 55.35 56.32 56.69 57.61 58.66 59.37
39.25 36.42 35.93 36.59 36.77 36.22 35.01 34.12 32.55 31.57 32.40 33.79 34.03 33.36 34.24 35.14 36.19 37.02 37.38 36.81 35.98 37.19 37.27 37.84 38.73 39.77 41.84 41.70 42.34 42.54 43.70 45.12 47.58 48.04 46.73 49.48 50.98 51.97 53.91 54.46 54.93 56.49 58.53
35.42 35.12 34.50 34.18 34.44 34.68 33.72 33.06 31.89 30.42 30.67 31.55 31.91 31.54 32.74 33.77 34.40 35.12 36.11 35.71 35.65 35.60 35.97 36.54 36.97 36.63 37.60 40.32 42.06 42.48 41.64 42.44 44.62 46.02 47.03 47.78 48.85 51.30 51.38 52.74 53.49 54.25 55.86
MSLP
1019.32 1018.92 1018.46 1018.20 1018.02 1017.84 1017.74 1017.65 1017.58 1017.54 1017.47 1017.36 1017.23 1017.19 1017.15 1017.05 1017.00 1016.91 1016.80 1016.70 1016.64 1016.45 1016.34 1016.26 1016.26 1016.25 1016.23 1016.18 1016.11 1016.12 1016.05 1016.02 1015.96 1016.00 1016.00 1015.93 1016.03 1015.99 1016.03 1016.12 1016.20 1016.27 1016.25
1019.43 1019.32 1018.91 1018.55 1018.30 1018.10 1017.97 1017.84 1017.72 1017.61 1017.49 1017.43 1017.31 1017.22 1017.21 1017.18 1017.15 1017.07 1016.91 1016.79 1016.60 1016.47 1016.44 1016.40 1016.31 1016.32 1016.26 1016.25 1016.14 1016.12 1016.11 1016.13 1016.20 1016.13 1016.12 1016.07 1016.25 1016.17 1016.15 1016.22 1016.32 1016.41 1016.40
1019.78 1019.77 1019.42 1019.08 1018.76 1018.54 1018.30 1018.17 1017.93 1017.71 1017.52 1017.41 1017.36 1017.34 1017.34 1017.17 1017.14 1017.09 1017.04 1016.88 1016.68 1016.62 1016.45 1016.40 1016.36 1016.42 1016.42 1016.38 1016.24 1016.09 1016.26 1016.33 1016.32 1016.37 1016.37 1016.48 1016.34 1016.23 1016.16 1016.29 1016.42 1016.46 1016.58
1020.26 1020.25 1019.88 1019.50 1019.11 1018.82 1018.53 1018.30 1018.12 1017.93 1017.79 1017.59 1017.50 1017.41 1017.32 1017.25 1017.17 1017.07 1016.86 1016.77 1016.69 1016.61 1016.54 1016.41 1016.34 1016.30 1016.37 1016.42 1016.38 1016.19 1016.29 1016.32 1016.36 1016.40 1016.56 1016.52 1016.54 1016.20 1016.18 1016.32 1016.34 1016.49 1016.63
1020.69 1020.48 1020.16 1019.87 1019.57 1019.26 1018.96 1018.76 1018.49 1018.20 1018.06 1017.86 1017.65 1017.56 1017.52 1017.34 1017.11 1016.96 1016.94 1016.88 1016.72 1016.63 1016.50 1016.47 1016.39 1016.32 1016.15 1016.32 1016.36 1016.27 1016.23 1016.20 1016.24 1016.33 1016.46 1016.38 1016.39 1016.10 1016.13 1016.15 1016.35 1016.49 1016.71
1020.82 1020.56 1020.27 1020.09 1019.84 1019.69 1019.36 1019.19 1018.89 1018.66 1018.40 1018.24 1018.02 1017.85 1017.68 1017.43 1017.21 1016.99 1016.87 1016.76 1016.69 1016.63 1016.50 1016.37 1016.21 1016.13 1016.01 1016.13 1016.13 1016.12 1016.10 1016.11 1016.07 1016.25 1016.17 1016.00 1016.11 1015.91 1016.04 1016.32 1016.26 1016.55 1016.76
1021.04 1020.88 1020.55 1020.20 1020.13 1019.99 1019.73 1019.60 1019.35 1019.09 1018.87 1018.68 1018.43 1018.28 1018.05 1017.68 1017.34 1017.05 1016.90 1016.68 1016.56 1016.50 1016.30 1016.17 1016.14 1015.94 1015.85 1015.96 1015.83 1015.86 1015.95 1016.03 1015.97 1016.08 1015.96 1015.80 1015.89 1015.89 1015.91 1016.28 1016.39 1016.60 1016.85
1021.33 1021.15 1020.94 1020.64 1020.35 1020.08 1019.89 1019.82 1019.61 1019.40 1019.11 1018.93 1018.67 1018.52 1018.28 1018.05 1017.87 1017.33 1017.01 1016.82 1016.49 1016.19 1016.12 1015.96 1015.77 1015.66 1015.55 1015.56 1015.58 1015.65 1015.66 1015.79 1015.91 1015.91 1015.73 1015.69 1015.78 1015.86 1016.10 1016.27 1016.44 1016.64 1016.97
1021.63 1021.51 1021.26 1020.99 1020.62 1020.36 1020.06 1019.89 1019.79 1019.56 1019.31 1019.19 1019.09 1018.97 1018.90 1018.62 1018.26 1017.86 1017.67 1017.21 1016.80 1016.41 1015.99 1015.70 1015.60 1015.34 1015.26 1015.24 1015.10 1015.30 1015.35 1015.51 1015.83 1015.79 1015.36 1015.55 1015.47 1015.80 1016.17 1016.45 1016.56 1016.68 1016.94
1021.93 1021.79 1021.58 1021.24 1021.00 1020.78 1020.57 1020.20 1020.10 1019.85 1019.64 1019.54 1019.43 1019.20 1018.98 1018.91 1018.77 1018.46 1018.02 1017.58 1017.15 1016.54 1015.98 1015.64 1015.32 1015.31 1015.05 1014.99 1014.79 1014.99 1015.08 1015.25 1015.44 1015.60 1015.41 1015.27 1015.25 1015.53 1015.91 1016.25 1016.49 1016.51 1016.68
1022.52 1022.39 1022.10 1021.92 1021.48 1021.17 1020.88 1020.63 1020.57 1020.24 1020.04 1019.95 1019.78 1019.58 1019.40 1019.17 1018.95 1018.66 1018.39 1017.94 1017.35 1016.94 1016.33 1015.79 1015.31 1014.82 1014.71 1014.64 1014.44 1014.78 1014.83 1015.01 1015.06 1015.24 1014.98 1014.70 1014.86 1015.12 1015.50 1015.79 1016.06 1016.27 1016.44
1023.17 1022.90 1022.76 1022.47 1022.18 1021.77 1021.26 1021.29 1021.13 1020.80 1020.75 1020.46 1020.18 1019.98 1019.74 1019.46 1019.16 1018.88 1018.44 1018.02 1017.58 1017.13 1016.68 1016.04 1015.60 1014.98 1014.55 1014.38 1014.30 1014.60 1014.69 1014.64 1014.61 1014.64 1014.54 1014.34 1014.27 1014.52 1014.87 1015.24 1015.80 1016.11 1016.29
1023.47 1023.30 1023.17 1022.86 1022.57 1022.35 1022.21 1021.90 1021.68 1021.31 1021.25 1021.04 1020.60 1020.40 1020.11 1019.84 1019.47 1019.13 1018.78 1018.20 1017.66 1017.34 1017.17 1016.55 1015.78 1015.14 1015.01 1014.53 1014.16 1014.27 1014.33 1014.37 1014.37 1014.57 1014.38 1014.30 1014.14 1014.38 1014.55 1014.85 1015.34 1015.72 1015.96
1023.93 1023.94 1023.73 1023.56 1023.17 1022.89 1022.65 1022.39 1022.32 1022.08 1021.93 1021.65 1021.47 1021.11 1020.73 1020.50 1019.90 1019.60 1019.15 1018.55 1017.98 1017.61 1017.01 1016.55 1016.13 1015.57 1014.85 1014.61 1014.45 1014.14 1014.05 1013.90 1013.83 1014.15 1014.20 1014.26 1014.38 1014.45 1014.42 1014.62 1014.93 1015.22 1015.58
1024.24 1024.30 1024.31 1024.02 1023.81 1023.46 1023.29 1023.18 1022.94 1022.73 1022.49 1022.33 1022.09 1021.73 1021.46 1021.17 1020.71 1020.18 1019.62 1018.87 1018.45 1017.89 1017.50 1016.79 1016.16 1015.77 1015.11 1014.54 1014.59 1013.92 1013.52 1013.45 1013.38 1013.61 1013.83 1014.18 1014.40 1014.37 1014.41 1014.58 1014.48 1014.64 1015.20
1024.57 1024.67 1024.64 1024.53 1024.38 1024.08 1023.87 1023.65 1023.52 1023.09 1022.89 1022.62 1022.38 1022.15 1021.89 1021.52 1021.19 1020.54 1019.91 1019.34 1018.75 1018.29 1017.72 1017.17 1016.52 1016.05 1015.54 1015.01 1014.65 1014.03 1013.72 1012.84 1013.14 1013.15 1013.08 1013.63 1013.96 1014.12 1014.25 1014.45 1014.38 1014.34 1014.86
1024.99 1024.99 1024.86 1024.70 1024.70 1024.54 1024.35 1024.02 1023.73 1023.52 1023.11 1022.71 1022.38 1022.23 1021.86 1021.63 1021.28 1020.90 1020.39 1019.72 1019.12 1018.46 1017.92 1017.27 1016.72 1016.28 1015.97 1015.21 1014.56 1014.13 1013.60 1013.03 1012.65 1012.53 1012.80 1013.13 1013.30 1013.66 1014.25 1014.36 1014.29 1014.19 1014.51
1025.08 1025.20 1025.18 1025.14 1025.07 1024.77 1024.63 1024.44 1024.05 1023.68 1023.46 1023.03 1022.66 1022.28 1021.84 1021.46 1021.20 1020.90 1020.59 1020.03 1019.38 1018.73 1017.98 1017.71 1017.23 1016.69 1016.22 1015.75 1015.04 1014.15 1013.85 1013.18 1012.79 1012.54 1012.82 1012.82 1013.24 1013.55 1013.69 1013.94 1013.79 1014.00 1014.23
1025.35 1025.47 1025.47 1025.36 1025.32 1025.16 1024.87 1024.51 1024.24 1023.96 1023.63 1023.34 1022.90 1022.52 1022.16 1021.63 1021.28 1020.95 1020.47 1019.98 1019.51 1018.89 1018.21 1017.90 1017.51 1017.13 1016.52 1015.83 1015.18 1014.31 1013.62 1013.29 1013.04 1012.95 1012.87 1012.88 1013.15 1013.26 1013.31 1013.50 1013.14 1013.59 1013.92
1025.53 1025.61 1025.63 1025.57 1025.44 1025.14 1024.84 1024.47 1024.21 1023.98 1023.64 1023.29 1022.97 1022.65 1022.17 1021.82 1021.38 1020.98 1020.47 1019.87 1019.42 1018.99 1018.40 1017.96 1017.61 1017.32 1016.81 1016.12 1015.24 1014.34 1013.48 1012.99 1012.89 1012.77 1012.70 1012.61 1012.67 1012.66 1012.80 1013.03 1012.86 1012.89 1013.35
1025.64 1025.72 1025.74 1025.68 1025.43 1025.23 1024.88 1024.64 1024.28 1024.16 1023.69 1023.30 1022.91 1022.49 1022.28 1021.90 1021.54 1021.14 1020.59 1020.03 1019.46 1019.00 1018.37 1018.07 1017.80 1017.38 1016.84 1016.19 1015.16 1014.08 1013.24 1012.63 1012.25 1012.38 1012.08 1012.34 1012.32 1012.16 1012.38 1012.47 1012.33 1012.29 1012.75
1025.72 1025.82 1025.85 1025.67 1025.42 1025.13 1025.00 1024.77 1024.54 1024.29 1023.86 1023.46 1022.99 1022.65 1022.33 1021.92 1021.46 1020.99 1020.55 1020.14 1019.46 1019.07 1018.59 1018.18 1017.87 1017.47 1016.94 1016.57 1016.26 1015.06 1013.72 1012.92 1012.21 1011.67 1011.73 1011.73 1011.80 1011.85 1011.88 1011.90 1011.85 1011.96 1012.04
1025.74 1025.84 1025.74 1025.72 1025.57 1025.29 1024.87 1024.58 1024.27 1023.98 1023.61 1023.44 1023.04 1022.71 1022.26 1021.94 1021.46 1021.01 1020.53 1020.17 1019.58 1019.03 1018.67 1018.21 1017.80 1017.51 1017.06 1016.67 1016.71 1016.11 1014.54 1013.35 1012.76 1011.98 1011.77 1011.61 1011.52 1011.53 1011.47 1011.79 1011.40 1011.56 1011.70
1025.63 1025.73 1025.71 1025.67 1025.58 1025.33 1024.99 1024.86 1024.76 1024.64 1024.26 1023.76 1023.32 1022.68 1022.24 1021.80 1021.39 1020.97 1020.53 1020.08 1019.69 1019.01 1018.71 1018.37 1017.78 1017.48 1017.15 1016.66 1016.34 1015.69 1015.40 1015.17 1013.68 1012.48 1011.85 1011.66 1011.44 1011.30 1011.33 1011.36 1011.32 1011.38 1011.63
1025.55 1025.68 1025.65 1025.66 1025.59 1025.42 1025.22 1025.02 1024.89 1024.79 1024.44 1023.84 1023.21 1022.66 1022.16 1021.63 1021.27 1020.91 1020.46 1020.04 1019.64 1019.02 1018.64 1018.43 1017.92 1017.50 1017.03 1016.50 1016.27 1016.09 1015.74 1014.89 1014.13 1013.31 1012.21 1011.78 1011.69 1011.29 1011.06 1010.97 1011.08 1011.21 1011.28
1025.48 1025.57 1025.64 1025.68 1025.70 1025.54 1025.38 1025.18 1024.97 1024.80 1024.30 1023.73 1023.18 1022.67 1022.13 1021.65 1021.18 1020.78 1020.36 1019.93 1019.46 1018.93 1018.47 1018.27 1018.06 1017.61 1017.08 1016.50 1015.93 1015.51 1015.54 1015.25 1014.16 1013.57 1012.63 1012.22 1011.92 1011.44 1011.22 1011.04 1010.97 1011.03 1010.98
Wind_Speed
8 13 17 14 13 12 11 10 10 9 9 9 9 7 5 6 6 6 6 6 6 6 4 2 1 1 1 3 4 3 5 4 7 6 7 7 7 9 10 8 9 8 13
11 12 18 16 15 14 13 12 11 10 9 8 8 8 6 6 5 5 5 5 5 5 6 4 2 2 1 2 2 0 3 6 5 5 7 5 5 5 4 8 10 8 13
11 11 13 18 17 16 14 14 13 11 10 9 8 7 8 6 5 5 5 5 4 5 4 4 3 2 2 1 1 2 3 3 3 4 5 3 4 6 5 11 9 12 14
11 10 11 16 16 16 16 15 13 13 12 11 11 9 8 8 8 8 5 4 4 5 5 4 3 3 2 2 2 3 4 4 5 4 2 3 5 9 10 11 11 14 16
7 6 11 18 18 18 17 16 16 14 14 14 13 12 11 10 10 10 10 9 8 7 5 5 4 4 4 5 6 6 7 6 7 4 5 5 5 8 12 11 13 15 14
6 5 10 16 18 18 18 17 16 16 16 15 14 14 14 14 12 10 10 9 8 9 8 8 7 6 5 7 8 8 8 8 7 5 5 5 6 9 16 14 15 15 16
7 8 7 16 16 18 18 19 18 17 16 16 15 14 14 14 14 13 12 9 9 10 9 9 10 9 9 9 11 11 10 9 5 5 5 4 5 13 14 16 15 15 15
7 8 8 15 17 15 18 16 17 17 18 18 18 17 16 15 15 15 14 14 12 10 11 10 11 10 10 11 12 11 10 9 6 5 4 4 6 13 14 15 15 15 14
7 8 7 7 11 13 16 16 16 18 17 19 20 20 18 17 18 16 15 14 16 14 14 11 13 11 9 11 11 12 11 11 5 4 4 4 9 11 10 10 10 13 14
8 7 8 7 8 7 7 16 16 18 19 19 20 19 17 15 17 18 18 16 16 17 17 16 12 12 9 10 9 11 10 10 5 5 3 5 11 12 15 16 16 15 14
7 7 7 7 8 8 7 10 12 16 16 15 14 17 11 5 7 8 14 18 17 16 15 17 15 13 10 10 8 12 10 4 5 4 3 12 15 14 13 14 14 15 15
6 7 7 7 8 7 8 8 8 9 8 7 8 10 8 8 7 10 9 15 16 16 16 15 14 15 10 4 3 8 3 5 5 4 2 14 17 18 15 15 15 15 16
5 6 8 8 7 7 6 4 4 4 5 5 9 9 8 7 7 7 6 6 5 8 5 9 8 5 7 5 4 6 7 6 4 3 1 3 10 13 13 13 15 18 18
7 7 7 8 7 7 5 5 5 5 5 6 6 9 7 5 8 8 6 8 6 6 8 8 5 7 5 7 6 5 9 7 5 4 5 6 2 1 5 11 13 17 19
8 7 7 8 8 8 7 5 6 6 5 6 6 7 7 6 7 6 8 7 7 7 6 8 7 5 6 5 6 6 9 9 8 5 3 7 6 4 5 8 12 15 19
7 8 7 10 8 8 6 7 4 4 5 5 4 6 8 5 5 6 7 7 7 8 7 7 7 6 6 4 5 5 8 9 8 8 4 5 7 5 10 14 13 10 18
6 7 7 7 7 8 7 6 5 5 4 4 4 6 6 6 6 6 6 6 7 8 9 8 7 5 5 6 6 3 5 7 9 8 5 3 3 6 12 15 16 12 18
7 7 6 7 6 7 7 5 4 5 5 4 5 5 7 6 6 5 5 6 7 7 7 6 7 7 6 6 7 4 4 4 4 5 3 3 3 5 11 18 14 8 13
7 6 6 6 7 7 6 5 5 6 5 5 5 5 7 8 7 6 6 6 7 6 6 6 7 6 7 7 7 6 4 4 4 6 5 4 5 5 3 10 13 9 16
6 5 6 5 5 5 4 4 3 4 4 4 5 5 6 6 6 8 8 8 8 7 7 7 7 6 6 7 9 7 5 4 4 5 7 5 5 7 6 6 6 9 20
4 4 3 5 6 3 2 3 3 4 5 6 6 7 7 9 8 7 6 8 7 7 9 8 8 8 7 7 6 4 4 6 7 7 6 7 8 7 7 5 4 4 7
2 1 3 5 5 4 2 3 2 3 3 4 5 5 9 7 8 10 8 8 8 8 7 7 8 6 4 3 5 7 3 3 4 7 5 6 8 5 6 6 5 7 6
2 0 4 5 6 5 5 3 3 3 3 4 6 8 6 8 11 7 8 7 9 7 7 6 6 7 6 4 4 4 5 3 3 0 4 3 4 3 3 5 5 5 5
3 3 4 5 6 6 7 5 5 4 7 5 7 7 8 10 10 9 6 7 7 6 8 7 8 7 7 7 4 3 5 6 4 3 1 2 2 4 5 4 3 3 4
4 2 3 6 6 6 7 6 5 5 4 5 6 8 9 7 7 7 9 8 6 5 6 8 8 8 7 7 6 4 8 7 8 5 5 3 2 4 3 3 3 4 4
2 4 5 5 6 7 7 7 7 7 9 9 9 8 7 7 6 8 9 9 7 6 7 6 7 7 8 9 7 6 6 5 6 6 2 4 5 3 4 3 4 3 3
Wind_Direction
11 20 20 29 30 28 24 22 15 11 8 10 12 12 12 24 26 22 15 5 356 2 350 318 37 72 23 349 0 31 113 93 93 106 95 102 111 124 128 124 120 120 117
44 20 22 30 25 28 25 23 19 13 9 3 3 2 8 5 3 2 1 359 360 357 16 315 269 261 277 302 288 225 120 94 106 112 111 132 134 145 141 151 137 139 130
51 19 17 29 32 32 29 20 21 20 17 12 2 354 342 337 334 336 338 340 345 343 346 18 332 288 262 267 344 102 93 119 161 169 158 161 162 161 153 143 155 146 135
49 23 22 24 28 28 29 27 26 24 22 18 14 2 346 332 319 313 304 307 310 319 324 337 12 320 323 200 219 177 168 184 217 200 228 207 227 172 164 162 164 151 140
65 33 36 35 31 27 24 20 19 23 25 27 24 17 2 347 326 315 312 306 300 296 298 294 292 294 276 223 228 214 201 207 230 215 233 250 207 189 171 162 158 149 146
51 46 38 42 42 38 33 23 20 16 19 21 23 17 10 3 351 343 326 307 304 290 290 281 278 276 261 236 232 228 223 222 235 239 244 245 181 187 152 143 137 137 133
38 25 23 40 42 40 35 31 29 25 21 17 11 3 358 356 353 356 349 342 323 297 278 275 276 271 257 244 237 237 234 226 236 240 259 199 192 184 162 148 144 141 141
58 35 28 24 29 40 38 31 29 26 27 24 20 18 10 10 359 357 360 359 345 319 305 277 265 269 260 244 237 232 224 223 229 247 262 167 208 187 167 156 154 151 152
49 44 30 20 17 29 29 29 23 24 27 29 23 22 15 13 6 358 355 350 346 334 319 307 278 266 258 248 237 230 220 220 209 249 270 170 157 159 158 161 163 167 164
43 37 26 15 14 12 19 28 31 28 34 32 24 17 14 10 5 0 355 348 338 339 339 320 302 276 260 245 232 231 224 221 209 238 208 180 165 167 173 185 183 179 177
41 28 20 15 13 6 28 22 21 23 23 31 26 16 6 355 357 359 344 344 344 343 332 330 331 304 274 260 243 234 219 213 206 223 211 184 175 183 190 193 195 194 188
40 27 21 17 16 14 24 19 15 20 14 18 25 17 9 1 351 349 332 334 340 339 342 338 330 333 309 247 236 246 216 223 229 190 243 203 180 190 198 198 206 207 199
65 39 21 16 14 22 15 18 18 20 14 4 18 19 6 360 354 352 341 338 336 334 336 336 332 339 323 299 236 223 227 222 224 223 201 82 193 193 200 207 209 209 206
54 39 26 18 15 18 16 21 17 20 15 14 10 14 7 357 357 349 343 337 343 338 343 335 326 317 333 338 272 250 243 227 212 214 198 174 130 177 232 231 227 220 210
57 37 34 28 22 18 23 17 21 16 19 8 9 7 5 353 353 343 338 338 341 345 338 330 321 323 323 348 314 329 253 236 226 212 177 203 230 262 291 293 271 230 209
62 40 36 32 21 17 17 23 16 7 4 11 2 359 359 347 342 348 338 338 343 339 329 324 312 316 304 284 278 308 313 256 233 225 202 190 206 296 306 284 282 223 208
64 52 34 32 18 19 10 5 10 1 5 6 359 349 347 347 344 339 330 332 335 331 328 331 324 332 322 313 279 267 295 302 226 203 202 199 192 251 255 276 278 258 214
72 64 47 31 14 13 8 357 348 353 352 344 341 337 336 331 333 334 332 325 326 326 332 338 340 334 327 325 309 278 255 274 287 262 220 184 204 224 227 217 256 290 250
71 58 39 31 16 359 345 338 341 336 350 331 337 328 325 333 326 330 324 318 326 324 326 333 334 323 319 316 308 298 267 249 241 242 245 208 218 229 226 220 194 215 269
66 50 26 8 350 341 331 337 337 330 325 322 316 311 321 329 327 335 326 318 325 323 325 327 321 323 307 312 309 293 274 246 234 233 228 234 227 229 232 231 199 201 218
50 21 348 339 332 332 333 340 338 329 326 329 322 319 333 327 326 326 316 315 309 313 319 320 315 314 321 320 301 293 281 261 233 221 216 213 216 218 226 232 217 198 206
221 311 358 343 334 330 324 301 287 294 294 292 307 314 318 310 312 316 321 314 317 310 307 315 319 310 307 0 315 300 281 311 256 243 223 217 217 200 213 227 220 214 209
219 278 12 346 328 326 339 327 323 309 311 323 321 317 320 315 317 301 309 319 319 319 304 306 309 308 308 317 302 302 317 286 330 74 249 249 246 218 219 234 227 215 211
149 47 18 351 335 338 343 345 342 311 316 311 308 311 312 315 307 313 307 314 310 325 324 320 320 309 296 299 316 307 299 305 297 309 291 307 263 230 211 217 225 229 218
94 68 6 345 344 337 342 337 325 317 287 302 305 305 311 305 305 314 319 305 308 313 317 313 318 324 315 304 298 305 303 303 279 269 288 261 292 252 250 233 233 230 219
77 37 9 358 334 331 329 326 331 321 316 319 316 313 315 313 310 308 308 307 298 301 307 314 306 307 307 300 292 284 278 284 310 315 294 276 265 272 236 225 227 224 219